Location: Oshawa
(43.9000°N, 78.8670°W)
Time: 15:18:11
(UTC-04:00)

Transit 2A Rocket - Visible Passes

Search period start: 24 May 2015 00:00
Search period end: 03 June 2015 00:00
Orbit: 586 x 920 km, 66.7° (Epoch: 24 May)

Date Brightness Start Highest point End Pass type
(mag) Time Alt. Az. Time Alt. Az. Time Alt. Az.
24 May 5.9 00:34:12 10° NW 00:38:51 33° WSW 00:38:51 33° WSW visible
24 May 6.6 22:09:25 10° NNW 22:13:57 25° NE 22:17:51 12° E visible
24 May 5.1 23:51:47 10° NW 23:57:04 57° WSW 23:57:47 52° SSW visible
25 May 7.1 21:27:42 10° N 21:31:22 18° NE 21:34:57 10° ENE visible
25 May 4.9 23:09:34 10° NNW 23:15:01 85° NE 23:16:43 43° SE visible
26 May 7.1 00:54:32 10° WNW 00:56:39 13° W 00:56:39 13° W visible
26 May 5.4 22:27:30 10° NNW 22:32:49 52° NE 22:35:42 24° ESE visible
27 May 6.4 00:11:00 10° WNW 00:15:03 22° WSW 00:15:39 22° WSW visible
27 May 6.1 21:45:34 10° NNW 21:50:29 33° NE 21:54:44 11° ESE visible
27 May 5.8 23:28:19 10° NW 23:33:13 38° WSW 23:34:40 31° SSW visible
28 May 5.0 22:45:57 10° NW 22:51:16 67° WSW 22:53:43 29° SSE visible
29 May 5.0 22:03:47 10° NNW 22:09:11 74° ENE 22:12:48 18° SE visible
29 May 7.0 23:48:11 10° WNW 23:51:05 15° WSW 23:52:45 13° SW visible
30 May 5.6 21:21:46 10° NNW 21:26:56 45° NE 21:31:39 10° SE visible
30 May 6.4 23:05:01 10° NW 23:09:19 26° WSW 23:11:53 17° SSW visible
31 May 5.7 22:22:25 10° NW 22:27:27 45° WSW 22:31:03 16° S visible
01 Jun 5.0 21:40:08 10° NW 21:45:28 78° WSW 21:50:14 10° SSE visible
02 Jun 7.1 22:42:00 10° WNW 22:45:21 17° WSW 22:48:22 10° SW visible
